Location: ??????????
(54.8537°N, 38.8755°E)
Time: 01:28:16
(UTC+00:00)

Tiros 1 despin weight - Pass Details

Date: 20 September 2024
Orbit: 573 x 615 km, 48.2° (Epoch: 04 October)

Event Time Altitude Azimuth Distance (km) Brightness Sun altitude
Rises 02:54:33 0° 267° (W) 2,884 - -2.6°
Exits shadow 02:55:23 - 264° (W) 2,578 ? -2.5°
Reaches altitude 10° 02:57:06 10° 256° (WSW) 1,981 ? -2.2°
Maximum altitude 03:00:59 28° 197° (SSW) 1,161 ? -1.7°
Drops below altitude 10° 03:04:53 10° 139° (SE) 1,979 ? -1.1°
Sets 03:07:25 0° 128° (SE) 2,880 ? -0.7°
